Location: Unspecified
(0.0000°N, 0.0000°E)
Time: 08:56:39
(UTC+00:00)

Courier 1B Rocket - Pass Details

Date: 25 May 2026
Orbit: 920 x 1201 km, 28.2° (Epoch: 9 June)

Event Time Altitude Azimuth Distance (km) Brightness Sun altitude
Rises 22:14:00 0° 228° (SW) 4,096 - -57.2°
Reaches altitude 10° 22:17:03 10° 221° (SW) 3,126 - -57.7°
Maximum altitude 22:24:25 44° 151° (SSE) 1,562 - -59.1°
Drops below altitude 10° 22:31:28 10° 81° (E) 3,002 - -60.3°
Sets 22:34:19 0° 75° (ENE) 3,920 - -60.8°
